FW4341 Weather Reports


time (UTC)temp
C
wind
direction
speed
KPH
gust
KPH
rain 1hr
cm
rain 24hr
cm
rain mn
cm
humidity
%
barometer
mb
20260505124546 20 160 0.0 1.6 0.00 0.00 0.00 92 1018.1
20260505123021 20 160 0.0 1.6 0.00 0.00 0.00 92 1018.0
20260505121549 20 158 0.0 1.6 0.00 0.00 0.00 92 1018.1
20260505120024 20 155 0.0 1.6 0.00 0.00 0.00 92 1018.0
20260505114555 20 155 0.0 3.2 0.00 0.00 0.00 92 1018.4
20260505113012 20 134 0.0 4.8 0.00 0.00 0.00 92 1018.0
20260505111531 20 100 0.0 0.0 0.00 0.00 0.00 92 1018.0
20260505101601 20 100 0.0 0.0 0.00 0.00 0.00 91 1018.1
20260505100059 20 100 0.0 0.0 0.00 0.00 0.00 90 1018.1
20260505094510 20 100 0.0 0.0 0.00 0.00 0.00 90 1017.7
20260505093002 21 100 0.0 0.0 0.00 0.00 0.00 90 1017.9
20260505091530 21 96 0.0 0.0 0.00 0.00 0.00 90 1017.8
20260505090004 21 96 0.0 0.0 0.00 0.00 0.00 89 1017.4
20260505084534 21 96 0.0 0.0 0.00 0.00 0.00 89 1017.4
20260505083105 21 96 0.0 0.0 0.00 0.00 0.00 87 1017.3
20260505081526 21 97 0.0 3.2 0.00 0.00 0.00 86 1017.2
20260505074526 22 98 0.0 3.2 0.00 0.00 0.00 84 1016.6
20260505073104 22 98 1.6 3.2 0.00 0.00 0.00 83 1016.5
20260505071542 22 97 0.0 4.8 0.00 0.00 0.00 82 1016.6
20260505070006 22 112 0.0 6.4 0.00 0.00 0.00 81 1016.4
20260505064531 23 89 1.6 6.4 0.00 0.00 0.00 81 1016.4
20260505063113 23 110 3.2 8.0 0.00 0.00 0.00 80 1016.3
20260505061532 23 113 1.6 6.4 0.00 0.00 0.00 80 1016.5
20260505060056 23 93 1.6 4.8 0.00 0.00 0.00 78 1016.6
20260505054543 23 133 4.8 11.3 0.00 0.00 0.00 76 1016.4
20260505053055 23 80 1.6 8.0 0.00 0.00 0.00 75 1016.4
20260505053004 23 98 1.6 8.0 0.00 0.00 0.00 76 1016.4
20260505051546 23 175 3.2 9.7 0.00 0.00 0.00 75 1016.2
20260505041508 24 117 4.8 9.7 0.00 0.00 0.00 72 1016.0
20260505040034 24 90 3.2 8.0 0.00 0.00 0.00 73 1016.0
20260505034527 25 120 3.2 11.3 0.00 0.00 0.00 72 1015.7
20260505033016 24 109 4.8 14.5 0.00 0.00 0.00 73 1016.0
20260505031512 25 95 4.8 9.7 0.00 0.00 0.00 72 1016.2
20260505030043 25 119 3.2 12.9 0.00 0.00 0.00 72 1016.1
20260505024509 25 72 4.8 9.7 0.00 0.00 0.00 71 1016.3
20260505023055 25 133 6.4 12.9 0.00 0.00 0.00 72 1016.4
20260505021516 25 176 3.2 11.3 0.00 0.00 0.00 72 1016.6
20260505020039 25 172 3.2 12.9 0.00 0.00 0.00 73 1016.7
20260505014502 25 188 3.2 11.3 0.00 0.00 0.00 73 1016.9
20260505013056 25 65 6.4 12.9 0.00 0.00 0.00 73 1017.0
20260505011525 25 177 4.8 12.9 0.00 0.00 0.00 75 1017.3
20260505010107 25 125 3.2 14.5 0.00 0.00 0.00 75 1017.6
20260505004503 24 178 4.8 11.3 0.00 0.00 0.00 75 1018.0
20260505003039 24 203 3.2 9.7 0.00 0.00 0.00 75 1018.0
20260505001559 24 189 3.2 14.5 0.00 0.00 0.00 76 1018.1
20260505001501 24 174 4.8 14.5 0.00 0.00 0.00 76 1018.2
20260505000033 23 118 6.4 12.9 0.00 0.00 0.00 77 1018.4
20260504234549 23 184 1.6 8.0 0.00 0.00 0.00 79 1018.5
20260504233005 23 163 3.2 11.3 0.00 0.00 0.00 83 1018.6
20260504231531 22 169 3.2 11.3 0.00 0.00 0.00 83 1018.7
20260504230050 22 209 4.8 14.5 0.00 0.00 0.00 85 1018.7
20260504224537 22 221 4.8 12.9 0.00 0.00 0.00 86 1018.7
20260504223002 21 183 8.0 12.9 0.00 0.00 0.00 86 1018.8
20260504221545 21 187 6.4 11.3 0.00 0.00 0.00 87 1018.8
20260504220051 21 201 4.8 11.3 0.00 0.00 0.00 89 1018.6
20260504214505 20 181 4.8 11.3 0.00 0.00 0.00 91 1018.6
20260504213047 20 188 3.2 8.0 0.00 0.00 0.00 93 1018.4
20260504211550 20 176 3.2 9.7 0.00 0.00 0.00 94 1018.4
20260504210019 19 198 1.6 6.4 0.00 0.03 0.00 94 1018.3
20260504204538 18 197 1.6 4.8 0.00 0.03 0.00 94 1018.0
20260504203045 18 179 0.0 6.4 0.00 0.03 0.00 94 1017.8
20260504201526 18 206 1.6 8.0 0.00 0.03 0.00 94 1017.7
20260504200049 18 195 3.2 8.0 0.00 0.08 0.00 94 1017.6
20260504194529 18 190 0.0 4.8 0.00 0.08 0.00 94 1017.4
20260504193041 18 205 0.0 4.8 0.00 0.08 0.00 93 1017.2
20260504191538 19 206 3.2 8.0 0.00 0.08 0.00 93 1017.1
20260504190004 19 198 1.6 6.4 0.00 0.18 0.00 93 1017.0
20260504184521 19 176 1.6 6.4 0.00 0.18 0.00 93 1016.8
20260504183048 19 194 1.6 6.4 0.00 0.18 0.00 93 1016.8
20260504181518 19 174 3.2 8.0 0.00 0.18 0.00 93 1016.9
20260504180046 19 207 3.2 9.7 0.00 0.20 0.00 93 1016.7
20260504174502 19 227 4.8 9.7 0.00 0.20 0.00 93 1016.8
20260504173022 19 185 3.2 9.7 0.00 0.20 0.00 93 1016.7
20260504171554 20 192 1.6 8.0 0.00 0.20 0.00 93 1016.7